Eden Prairie, MN

2:09 PM CST on January 20, 2017 (GMT -0600)
Flying Cloud

Weather History for KFCM - November, 2012

Change the Weather History Date:

Friday, November 16, 2012

  Actual Average Record
Temperature  
Mean Temperature 33 °F -  
Max Temperature 45 °F 40 °F 66 °F (2001)
Min Temperature 21 °F 27 °F 3 °F (1997)
Degree Days  
Heating Degree Days 32    
Moisture  
Dew Point 17 °F    
Average Humidity 53    
Maximum Humidity 73    
Minimum Humidity 29    
Precipitation  
Precipitation 0.00 in - - ()
Sea Level Pressure  
Sea Level Pressure 30.44 in    
Wind  
Wind Speed 5 mph (SE)    
Max Wind Speed 13 mph    
Max Gust Speed -    
Visibility 10 miles    
Events      
Averages and records for this station are not official NWS values.
T = Trace of Precipitation, MM = Missing Value Source: NWS Daily Summary

Daily Weather History Graph

Daily Weather History Graph

Search for Another Location

Airport or City:

Trip Planner

Search our weather history database for the weather conditions in past years. The results will help you decide how hot, cold, wet, or windy it might be!

Date:

Astronomy

Nov. 16, 2012 Rise Set
Actual Time 7:13 AM CST 4:43 PM CST
Civil Twilight 6:41 AM CST 5:15 PM CST
Nautical Twilight 6:05 AM CST 5:51 PM CST
Astronomical Twilight 5:31 AM CST 6:25 PM CST
Moon 10:10 AM CST (11/16) 7:42 PM CST (11/16)
Length of Visible Light 10h 34m
Length of Day
9h 30m
Waxing Crescent, 12% of the Moon is Illuminated
Nov 16
Waxing Crescent
Nov 20
First Quarter
Nov 28
Full
Dec 6
Last Quarter
Dec 13
New

Hourly Weather History & Observations

Time (CST) Temp. Windchill Dew Point Humidity Pressure Visibility Wind Dir Wind Speed Gust Speed Precip Events Conditions
12:53 AM 28.0 °F 21.7 °F 10.9 °F 49% 30.48 in 10.0 mi North 5.8 mph - N/A   Clear
1:53 AM 27.0 °F 21.6 °F 10.9 °F 51% 30.50 in 10.0 mi NNE 4.6 mph - N/A   Clear
2:53 AM 26.1 °F 20.5 °F 10.9 °F 53% 30.50 in 10.0 mi NNE 4.6 mph - N/A   Clear
3:53 AM 26.1 °F 21.9 °F 10.9 °F 53% 30.50 in 10.0 mi NNE 3.5 mph - N/A   Clear
4:53 AM 24.1 °F 18.2 °F 10.9 °F 57% 30.49 in 10.0 mi North 4.6 mph - N/A   Clear
5:53 AM 23.0 °F - 12.9 °F 65% 30.49 in 10.0 mi Calm Calm - N/A   Clear
6:53 AM 21.9 °F - 12.9 °F 68% 30.49 in 10.0 mi Calm Calm - N/A   Clear
7:53 AM 24.1 °F - 14.0 °F 65% 30.50 in 10.0 mi Calm Calm - N/A   Clear
8:53 AM 28.9 °F 23.9 °F 15.1 °F 56% 30.51 in 10.0 mi ESE 4.6 mph - N/A   Clear
9:53 AM 32.0 °F 27.5 °F 17.1 °F 54% 30.51 in 10.0 mi SSE 4.6 mph - N/A   Clear
10:53 AM 36.0 °F 33.3 °F 19.0 °F 50% 30.51 in 10.0 mi South 3.5 mph - N/A   Clear
11:53 AM 41.0 °F 37.1 °F 19.0 °F 41% 30.48 in 10.0 mi South 5.8 mph - N/A   Clear
12:53 PM 43.0 °F 41.3 °F 17.1 °F 35% 30.46 in 10.0 mi SSW 3.5 mph - N/A   Clear
1:53 PM 44.1 °F 42.5 °F 15.1 °F 31% 30.44 in 10.0 mi South 3.5 mph - N/A   Clear
2:53 PM 45.0 °F 40.6 °F 14.0 °F 29% 30.41 in 10.0 mi SE 8.1 mph - N/A   Clear
3:53 PM 44.1 °F 37.7 °F 17.1 °F 34% 30.39 in 10.0 mi SE 12.7 mph - N/A   Clear
4:53 PM 39.0 °F 33.4 °F 19.9 °F 46% 30.38 in 10.0 mi ESE 8.1 mph - N/A   Clear
5:53 PM 36.0 °F 29.6 °F 19.9 °F 52% 30.38 in 10.0 mi SE 8.1 mph - N/A   Clear
6:53 PM 37.9 °F 32.1 °F 21.0 °F 51% 30.37 in 10.0 mi ESE 8.1 mph - N/A   Clear
7:53 PM 37.0 °F 31.6 °F 21.9 °F 54% 30.35 in 10.0 mi ESE 6.9 mph - N/A   Clear
8:53 PM 34.0 °F 28.8 °F 24.1 °F 67% 30.35 in 10.0 mi SSE 5.8 mph - N/A   Clear
9:53 PM 34.0 °F 28.0 °F 25.0 °F 70% 30.34 in 10.0 mi SE 6.9 mph - N/A   Clear
10:53 PM 36.0 °F 29.0 °F 27.0 °F 70% 30.33 in 10.0 mi SSE 9.2 mph - N/A   Clear
11:53 PM 36.0 °F 29.0 °F 28.0 °F 73% 30.33 in 10.0 mi SSE 9.2 mph - N/A   Clear